SHIJIAN 6 03A (SJ-6 03A)

导读 | 星芒AI

SHIJIAN 6 03A(SJ-6 03A)是中国研制的一颗试验卫星,主要用于空间环境探测和新技术验证。该卫星属于实践六号系列,该系列卫星通常用于科学实验和空间物理研究。SJ-6 03A于2021年发射,运行在低地球轨道,旨在收集空间辐射、粒子环境等数据,为卫星设计和空间任务提供支持。其任务还包括测试新型载荷和通信技术,推动中国航天技术的发展。

基本信息
目录编号:
33408
目录名称:
SHIJIAN 6 03A (SJ-6 03A)
国际标识:
2008-053A
轨道中心:
EARTH
卫星名称:
SHIJIAN 6 03A (SJ-6 03A)
卫星全名:
--
卫星状态:
在轨 (已飞行6261 天)
发射日期:
2008-10-25 UTC
国别 :
中国 (CN)
星等 :
--
轨道信息
数据来源 国际轨道数据
星历时间: 2025-12-15T15:14:19+0800
17小时前
查看轨道信息
半长轴: 6899.795km
偏心率: 0.0010402
轨道倾角: 97.862°
近地点辐角 287.511°
升交点赤经 11.325°
平近点角 72.498°
近地点: 514.482km
远地点: 528.838km
周期: 95.064分钟
每日圈数: 15.147764
详细信息
使用方式:
暂无
2D轨道图
3D轨道图
轨道高度分析图
轨道倾角分析图
轨道综合分析图
查看轨道综合分析图